Volver al catálogo

METOP-B

ActivoMeteoSSO
NORAD 38771·PAYLOAD·🇪🇺 EU

Lanzado Sep 17, 2012 desde Baikonur Cosmodrome

Loading…

Próximos Pases (próximas 24 horas)

TLE

ActualizadoSource: Space-Track

Época: Sep 14, 2026, 22:30 UTC

1 38771U 12049A   26257.93752210  .00000069  00000-0  51252-4 0  9997
2 38771  98.6415 307.6080 0003449  90.2135 269.9437 14.21459141726013

Sigue METOP-B en tiempo real con AllMySat

Download on the App Store